Orbital Elements at Epoch 2459200.5 (2020-Dec-17.0) TDB
Reference: JPL 14 (heliocentric ecliptic J2000)
Element | Value | Uncertainty (1-sigma) | Units |
e | .2021944092443982 | 4.3488e-08 | |
a | 2.402242912104675 | 1.8627e-08 | au |
q | 1.916522825630128 | 1.0768e-07 | au |
i | 6.197325627129779 | 5.7503e-06 | deg |
node | 92.7475799476244 | 4.7517e-05 | deg |
peri | 107.6799182549892 | 5.0851e-05 | deg |
M | 239.437016938922 | 2.3052e-05 | deg |
tp | 2459655.944322056814 (2022-Mar-17.44432206) | 9.0822e-05 | TDB |
period | 1359.952713324869 3.72 | 1.5818e-05 4.331e-08 | d yr |
n | .2647150863943328 | 3.079e-09 | deg/d |
Q | 2.887962998579222 | 2.2394e-08 | au |
|
| | Orbit Determination Parameters
Additional Information
|